Showing default

ICEYE-X31, 58288

Orbit data source: Space-Track

ICEYE-X31, 58288 is a payload satellite owned by ICEYE (FI) in SSO that was launched on Sat, 11 Nov 2023 UTC via an FALCON 9 launch vehicle from the Air Force Western Test Range (AFWTR). Payload-class satellites include a variety of spacecraft equipped with specific instruments for various scientific and technological missions. These include communications satellites like Starlink; space stations such as the ISS; scientific satellites like the Hubble; Earth observation satellites from companies like Planet Labs, Umbra, and HawkEye 360; GPS; miniature CubeSats for education and research; and military/defense satellites.

Loading next visibility...
Identifier
58288, 2023-174AJ
Orbit
SSO
Country
Flag of FIFI / FIN
Related business
Manufacturer
ICEYE
Mission
Operational Commercial Radar Imaging
Bus & Motor
ICEYE, Unknown motor
Mass
90 kg wet, 89 kg dry
Launch date (UTC)
2023-11-11 (2 years ago)
Launch vehicle
FALCON 9
Launch site
Air Force Western Test Range (AFWTR)
Object type
Payload
Rocket body
Debris
Shape & HBR
Box + 1 Pan, 1.6 m
Radar Cross Section
0.825 m², Medium (>0.1 m² and < 1m²)

Expand to show TLE details & history
Last TLE update: 6 hours ago

TLE from 6 hours ago
0 ICEYE-X31
1 58288U 23174AJ  25354.86346872  .00009981  00000-0  36913-3 0  9993
2 58288  97.3995  66.3125 0002114 221.1501 138.9580 15.27896081117468
Epoch: 2025-12-20T20:43Z
TLE epoch observation values (Epoch: 2025-12-20T20:43:23.697Z)
Latitude
0.00005°
Longitude
25.77959°
Altitude
486.298 km
Speed
7.621 km/s
True Right ascension
04h 25m 14s
True Declination
0° 00' 00"
Sunlit
Object was in full shadow at epoch
Visualization orbit readout
Latitude
Unknown
Longitude
Unknown
Altitude
Unknown
Speed
Unknown
Apparent Right ascension
Unknown
Apparent Declination
Unknown
Sunlit
N/A
Visualization observer readout
Local Sidereal Time
02:00:56
Azimuth
Unknown
Elevation
Unknown
Doppler factor
Unknown
Orbital elements
Apogee altitude
480.507 km
Perigee altitude
477.608 km
Semi-major axis
6,857.195 km
Eccentricity
0.00021
Inclination
97.3995°
RAAN
66.3125°
Arg. of periapsis
221.1501°
True anomaly
138.9739°
Mean anomaly
138.958°
Eccentric anomaly
138.96595°
Mean motion
3.82229 °/min
Orbital period
94.18 mins
BSTAR
0.00036913
Loading maneuver chart data...
Computing Atmospheric mass density...
Loading historical data...
Loading historical data...
Loading historical data...
Loading historical data...
Loading historical data...
Loading historical data...
Loading historical data...

Documentation

Showing up to 5 results
|